EWG2RE EDDS-EDDK

Flight info

Callsign EWG2RE
Flight time 0h 31m
Altitude 22000
Route TAGIK2H/07 TAGIK Z3 VATAK T840 GULKO GULKO1B
Aircraft A319/M-SDE3FGHIRWY/LB1

Departure

Time 2026-04-26 19:18
Airport Stuttgart Airport (EDDS)

Arrival

Time 2026-04-26 19:50
Airport Cologne Bonn Airport (EDDK)
Time Latitude Longitude Altitude Speed Heading
2026-04-26 18:46 48.68927 9.19580 1315 ft 0 kts 344°
2026-04-26 19:02 48.68917 9.19585 1314 ft 4 kts 343°
2026-04-26 19:03 48.68883 9.19599 1312 ft 4 kts 351°
2026-04-26 19:03 48.68859 9.19596 1310 ft 4 kts 35°
2026-04-26 19:03 48.68843 9.19566 1310 ft 4 kts 69°
2026-04-26 19:03 48.68836 9.19535 1311 ft 1 kts 74°
2026-04-26 19:06 48.68839 9.19549 1310 ft 3 kts 74°
2026-04-26 19:07 48.68849 9.19605 1309 ft 8 kts 74°
2026-04-26 19:07 48.68868 9.19703 1308 ft 12 kts 74°
2026-04-26 19:07 48.68890 9.19834 1304 ft 12 kts 87°
2026-04-26 19:07 48.68817 9.19915 1297 ft 14 kts 146°
2026-04-26 19:08 48.68751 9.19957 1293 ft 4 kts 163°
2026-04-26 19:08 48.68726 9.19969 1291 ft 0 kts 163°
2026-04-26 19:09 48.68724 9.19970 1291 ft 2 kts 163°
2026-04-26 19:09 48.68688 9.19986 1289 ft 8 kts 164°
2026-04-26 19:09 48.68676 9.19991 1288 ft 0 kts 164°
2026-04-26 19:09 48.68674 9.19992 1288 ft 2 kts 164°
2026-04-26 19:10 48.68672 9.19993 1288 ft 0 kts 164°
2026-04-26 19:12 48.68671 9.19993 1288 ft 1 kts 164°
2026-04-26 19:12 48.68663 9.19997 1287 ft 0 kts 164°
2026-04-26 19:17 48.68662 9.19997 1287 ft 2 kts 164°
2026-04-26 19:17 48.68602 9.20031 1285 ft 13 kts 153°
2026-04-26 19:17 48.68610 9.20205 1280 ft 35 kts 73°
2026-04-26 19:17 48.68748 9.20928 1270 ft 104 kts 74°
2026-04-26 19:18 48.69007 9.22272 1260 ft 158 kts 71°
2026-04-26 19:18 48.69338 9.23937 1707 ft 169 kts 72°
2026-04-26 19:18 48.69640 9.25673 2374 ft 172 kts 73°
2026-04-26 19:18 48.69970 9.27512 2788 ft 193 kts 73°
2026-04-26 19:19 48.70372 9.29646 3126 ft 223 kts 73°
2026-04-26 19:19 48.70817 9.31953 3686 ft 245 kts 73°
2026-04-26 19:19 48.71330 9.34562 4415 ft 262 kts 73°
2026-04-26 19:19 48.71846 9.37193 5410 ft 268 kts 73°
2026-04-26 19:20 48.72422 9.39913 6356 ft 275 kts 66°
2026-04-26 19:20 48.73141 9.41545 6935 ft 279 kts 42°
2026-04-26 19:20 48.75439 9.43161 8193 ft 279 kts 12°
2026-04-26 19:20 48.77374 9.43538 9107 ft 283 kts 358°
2026-04-26 19:21 48.79319 9.43068 10049 ft 285 kts 339°
2026-04-26 19:21 48.80997 9.41499 10888 ft 288 kts 319°
2026-04-26 19:21 48.82596 9.39437 11150 ft 315 kts 320°
2026-04-26 19:21 48.84348 9.37271 11529 ft 333 kts 321°
2026-04-26 19:22 48.86176 9.35083 12312 ft 337 kts 321°
2026-04-26 19:22 48.88021 9.32849 13050 ft 342 kts 321°
2026-04-26 19:22 48.89898 9.30579 13803 ft 346 kts 321°
2026-04-26 19:22 48.91794 9.28311 14112 ft 347 kts 321°
2026-04-26 19:23 48.93698 9.26073 14152 ft 345 kts 321°
2026-04-26 19:23 48.95596 9.23838 14178 ft 346 kts 322°
2026-04-26 19:23 48.97495 9.21588 14229 ft 346 kts 321°
2026-04-26 19:23 48.99365 9.19360 14293 ft 346 kts 321°
2026-04-26 19:24 49.01258 9.17091 14239 ft 346 kts 321°
2026-04-26 19:24 49.03145 9.14817 14151 ft 345 kts 321°
2026-04-26 19:24 49.06902 9.10242 14198 ft 346 kts 321°
2026-04-26 19:25 49.08786 9.07970 14267 ft 346 kts 321°
2026-04-26 19:25 49.10037 9.06470 14252 ft 346 kts 321°
2026-04-26 19:25 49.12572 9.03429 14195 ft 346 kts 321°
2026-04-26 19:25 49.14465 9.01163 14141 ft 345 kts 321°
2026-04-26 19:26 49.16343 8.98886 14152 ft 345 kts 321°
2026-04-26 19:26 49.18302 8.96805 14399 ft 353 kts 330°
2026-04-26 19:26 49.20607 8.95470 15029 ft 356 kts 343°
2026-04-26 19:26 49.22972 8.94371 15817 ft 355 kts 341°
2026-04-26 19:27 49.25323 8.93194 16569 ft 357 kts 341°
2026-04-26 19:27 49.27693 8.91975 17255 ft 360 kts 340°
2026-04-26 19:27 49.30076 8.90760 17969 ft 363 kts 341°
2026-04-26 19:27 49.32488 8.89553 18686 ft 365 kts 341°
2026-04-26 19:28 49.34924 8.88354 19220 ft 371 kts 341°
2026-04-26 19:28 49.37393 8.87160 19864 ft 373 kts 342°
2026-04-26 19:28 49.39871 8.85983 20545 ft 374 kts 342°
2026-04-26 19:28 49.42362 8.84816 21172 ft 377 kts 342°
2026-04-26 19:29 49.44880 8.83603 21760 ft 381 kts 341°
2026-04-26 19:29 49.47417 8.82351 22147 ft 384 kts 341°
2026-04-26 19:29 49.49942 8.81083 22238 ft 380 kts 341°
2026-04-26 19:29 49.52420 8.79833 22246 ft 379 kts 341°
2026-04-26 19:30 49.54910 8.78581 22247 ft 379 kts 341°
2026-04-26 19:30 49.57421 8.77324 22248 ft 379 kts 341°
2026-04-26 19:30 49.59933 8.76075 22248 ft 379 kts 341°
2026-04-26 19:30 49.61626 8.75238 22248 ft 379 kts 341°
2026-04-26 19:31 49.64942 8.73599 22252 ft 379 kts 341°
2026-04-26 19:31 49.67456 8.72352 22248 ft 379 kts 341°
2026-04-26 19:31 49.69972 8.71099 22249 ft 379 kts 341°
2026-04-26 19:31 49.72486 8.69841 22249 ft 379 kts 341°
2026-04-26 19:32 49.74963 8.68601 22252 ft 379 kts 341°
2026-04-26 19:32 49.77499 8.67332 22249 ft 379 kts 341°
2026-04-26 19:32 49.79981 8.66089 22248 ft 379 kts 341°
2026-04-26 19:32 49.82527 8.64816 22246 ft 379 kts 341°
2026-04-26 19:33 49.85033 8.63565 22244 ft 379 kts 341°
2026-04-26 19:33 49.87544 8.62308 22257 ft 379 kts 341°
2026-04-26 19:33 49.90017 8.61067 22255 ft 380 kts 341°
2026-04-26 19:33 49.92529 8.59806 22243 ft 380 kts 341°
2026-04-26 19:34 49.95047 8.58541 22237 ft 380 kts 340°
2026-04-26 19:34 49.97450 8.56899 22213 ft 380 kts 326°
2026-04-26 19:34 49.99506 8.54210 21946 ft 392 kts 315°
2026-04-26 19:34 50.01432 8.51165 21554 ft 394 kts 314°
2026-04-26 19:35 50.03334 8.48108 21174 ft 393 kts 314°
2026-04-26 19:35 50.05223 8.45049 20789 ft 392 kts 314°
2026-04-26 19:35 50.07112 8.41984 20428 ft 391 kts 314°
2026-04-26 19:35 50.08987 8.38947 20059 ft 389 kts 314°
2026-04-26 19:36 50.10866 8.35908 19700 ft 388 kts 314°
2026-04-26 19:36 50.12106 8.33904 19453 ft 387 kts 314°
2026-04-26 19:36 50.14596 8.29885 18983 ft 384 kts 313°
2026-04-26 19:36 50.16448 8.26896 18625 ft 383 kts 313°
2026-04-26 19:37 50.18302 8.23906 18216 ft 382 kts 313°
2026-04-26 19:37 50.20140 8.20934 17826 ft 380 kts 313°
2026-04-26 19:37 50.21969 8.17972 17383 ft 377 kts 313°
2026-04-26 19:37 50.23755 8.15073 16953 ft 374 kts 313°
2026-04-26 19:38 50.25551 8.12155 16524 ft 372 kts 313°
2026-04-26 19:38 50.27339 8.09248 16090 ft 369 kts 313°
2026-04-26 19:38 50.29112 8.06362 15638 ft 366 kts 313°
2026-04-26 19:38 50.30868 8.03502 15173 ft 364 kts 313°
2026-04-26 19:39 50.32614 8.00655 14714 ft 359 kts 313°
2026-04-26 19:39 50.34321 7.97870 14259 ft 351 kts 313°
2026-04-26 19:39 50.35994 7.95132 13781 ft 344 kts 313°
2026-04-26 19:39 50.37616 7.92471 13282 ft 337 kts 314°
2026-04-26 19:40 50.39237 7.89817 12791 ft 331 kts 314°
2026-04-26 19:40 50.40814 7.87228 12299 ft 326 kts 314°
2026-04-26 19:40 50.42374 7.84663 11813 ft 323 kts 314°
2026-04-26 19:40 50.43919 7.82123 11381 ft 320 kts 314°
2026-04-26 19:41 50.45444 7.79613 11263 ft 318 kts 314°
2026-04-26 19:41 50.46976 7.77089 11271 ft 319 kts 314°
2026-04-26 19:41 50.48504 7.74566 11274 ft 319 kts 314°
2026-04-26 19:41 50.48999 7.73747 11275 ft 319 kts 314°
2026-04-26 19:42 50.51540 7.69536 11097 ft 319 kts 314°
2026-04-26 19:42 50.53059 7.67017 10854 ft 317 kts 314°
2026-04-26 19:42 50.54594 7.64476 10612 ft 316 kts 314°
2026-04-26 19:42 50.56083 7.62010 10380 ft 314 kts 314°
2026-04-26 19:43 50.57577 7.59533 10263 ft 306 kts 314°
2026-04-26 19:43 50.59003 7.57168 10152 ft 292 kts 314°
2026-04-26 19:43 50.60375 7.54893 9875 ft 285 kts 314°
2026-04-26 19:43 50.61740 7.52622 9400 ft 285 kts 314°
2026-04-26 19:44 50.63099 7.50359 8932 ft 284 kts 314°
2026-04-26 19:44 50.64460 7.48089 8252 ft 285 kts 314°
2026-04-26 19:44 50.65816 7.45823 7533 ft 283 kts 314°
2026-04-26 19:44 50.67147 7.43598 6849 ft 282 kts 314°
2026-04-26 19:45 50.68488 7.41354 6104 ft 282 kts 314°
2026-04-26 19:45 50.69832 7.39107 5338 ft 282 kts 314°
2026-04-26 19:45 50.71183 7.36854 4567 ft 282 kts 315°
2026-04-26 19:45 50.72695 7.34877 3825 ft 282 kts 322°
2026-04-26 19:46 50.74177 7.32929 3372 ft 273 kts 318°
2026-04-26 19:46 50.75554 7.30957 3000 ft 260 kts 317°
2026-04-26 19:46 50.76805 7.29142 2668 ft 229 kts 318°
2026-04-26 19:46 50.77906 7.27553 2372 ft 201 kts 319°
2026-04-26 19:47 50.78860 7.26178 2117 ft 169 kts 319°
2026-04-26 19:47 50.79129 7.25790 2044 ft 161 kts 320°
2026-04-26 19:47 50.80380 7.23963 1692 ft 136 kts 319°
2026-04-26 19:47 50.81070 7.22968 1476 ft 132 kts 321°
2026-04-26 19:48 50.81747 7.22011 1348 ft 130 kts 320°
2026-04-26 19:48 50.82400 7.21069 1162 ft 128 kts 318°
2026-04-26 19:48 50.83058 7.20125 990 ft 127 kts 321°
2026-04-26 19:48 50.83715 7.19177 829 ft 127 kts 319°
2026-04-26 19:49 50.84345 7.18257 669 ft 120 kts 320°
2026-04-26 19:49 50.84982 7.17340 532 ft 133 kts 321°
2026-04-26 19:49 50.85672 7.16343 330 ft 130 kts 320°
2026-04-26 19:49 50.86256 7.15504 289 ft 93 kts 317°
2026-04-26 19:50 50.86606 7.14998 275 ft 47 kts 317°
2026-04-26 19:50 50.86838 7.14612 263 ft 50 kts 297°
2026-04-26 19:50 50.86892 7.14276 257 ft 1 kts 275°
2026-04-26 19:50 50.86893 7.14268 257 ft 3 kts 278°
2026-04-26 19:51 50.86899 7.14207 255 ft 5 kts 280°
2026-04-26 19:51 50.86911 7.14132 255 ft 9 kts 290°
2026-04-26 19:51 50.86921 7.14020 253 ft 13 kts 275°
2026-04-26 19:51 50.86964 7.13857 246 ft 20 kts 315°
2026-04-26 19:52 50.87086 7.13686 240 ft 26 kts 317°
2026-04-26 19:52 50.87234 7.13473 235 ft 32 kts 317°
2026-04-26 19:52 50.87413 7.13215 232 ft 37 kts 317°
2026-04-26 19:52 50.87565 7.12994 232 ft 27 kts 317°
2026-04-26 19:53 50.87715 7.12778 232 ft 30 kts 314°
2026-04-26 19:53 50.87765 7.12613 232 ft 12 kts 260°
2026-04-26 19:53 50.87737 7.12534 232 ft 10 kts 196°
2026-04-26 19:53 50.87718 7.12465 232 ft 8 kts 287°
2026-04-26 19:54 50.87730 7.12408 232 ft 0 kts 288°
2026-04-26 19:54 50.87732 7.12397 233 ft 1 kts 288°
2026-04-26 19:54 50.87733 7.12393 235 ft 0 kts 288°